Meridian, MS

12:35 PM CST on November 12, 2019 (GMT -0600)
Key

Weather History for KMEI - September, 2019

Change the Weather History Date:

Sunday, September 1, 2019

  Actual Average Record
Temperature  
Mean Temperature 82 °F 79 °F  
Max Temperature 91 °F 90 °F 102 °F (1951)
Min Temperature 71 °F 67 °F 51 °F (1946)
Degree Days  
Heating Degree Days 0 0  
Month to date heating degree days 0 0  
Since 1 July heating degree days 0 0  
Cooling Degree Days 16 14  
Month to date cooling degree days 17 14  
Year to date cooling degree days 2100 1634  
Growing Degree Days 32 (Base 50)    
Moisture  
Dew Point 71 °F    
Average Humidity 77    
Maximum Humidity 91    
Minimum Humidity 55    
Precipitation  
Precipitation 0.00 in 0.11 in 2.97 in (1932)
Month to date precipitation 0.00 0.11  
Year to date precipitation 42.95 39.07  
Sea Level Pressure  
Sea Level Pressure 30.05 in    
Wind  
Wind Speed 3 mph ()    
Max Wind Speed 12 mph    
Max Gust Speed 16 mph    
Visibility 10.0 miles    
Events      
T = Trace of Precipitation, MM = Missing Value Source: Averaged Metar Reports

Daily Weather History Graph

Daily Weather History Graph

Search for Another Location

Airport or City:

Astronomy

Sep. 01, 2019 Rise Set
Actual Time 6:29 AM CDT 7:19 PM CDT
Civil Twilight 6:04 AM CDT 7:44 PM CDT
Nautical Twilight 5:35 AM CDT 8:14 PM CDT
Astronomical Twilight 5:05 AM CDT 8:44 PM CDT
Moon 8:53 AM CDT (9/1) 9:15 PM CDT (9/1)
Length of Visible Light 13h 39m
Length of Day
12h 49m
Waxing Crescent, 8% of the Moon is Illuminated
Sep 1
Waxing Crescent
Sep 5
First Quarter
Sep 13
Full
Sep 21
Last Quarter
Sep 28
New

Hourly Weather History & Observations

Time (CDT) Temp. Heat Index Dew Point Humidity Pressure Visibility Wind Dir Wind Speed Gust Speed Precip Events Conditions
12:58 AM 77.0 °F - 69.1 °F 76% 30.04 in 10.0 mi Calm Calm - N/A   Clear
1:58 AM 73.9 °F - 69.1 °F 85% 30.03 in 10.0 mi Calm Calm - N/A   Clear
2:58 AM 72.0 °F - 68.0 °F 87% 30.02 in 10.0 mi Calm Calm - N/A   Clear
3:58 AM 72.0 °F - 68.0 °F 87% 30.03 in 10.0 mi Calm Calm - N/A   Clear
4:46 AM 73.9 °F - 70.0 °F 87% 30.05 in 10.0 mi Variable 3.5 mph - N/A   Scattered Clouds
4:58 AM 73.9 °F - 70.0 °F 87% 30.04 in 10.0 mi NNE 5.8 mph - N/A   Mostly Cloudy
5:18 AM 73.9 °F - 71.1 °F 91% 30.06 in 10.0 mi ENE 4.6 mph - N/A   Overcast
5:58 AM 73.9 °F - 70.0 °F 87% 30.05 in 10.0 mi NNE 4.6 mph - N/A   Partly Cloudy
6:10 AM 73.9 °F - 70.0 °F 87% 30.06 in 10.0 mi North 4.6 mph - N/A   Partly Cloudy
6:58 AM 73.9 °F - 70.0 °F 87% 30.06 in 10.0 mi ENE 4.6 mph - N/A   Partly Cloudy
7:10 AM 73.9 °F - 71.1 °F 91% 30.08 in 10.0 mi East 6.9 mph - N/A   Mostly Cloudy
7:58 AM 75.9 °F - 71.1 °F 85% 30.09 in 10.0 mi ENE 5.8 mph - N/A   Overcast
8:48 AM 78.1 °F - 72.0 °F 81% 30.10 in 10.0 mi ENE 5.8 mph - N/A   Overcast
8:58 AM 78.1 °F - 71.1 °F 79% 30.09 in 10.0 mi East 8.1 mph - N/A   Overcast
9:58 AM 80.1 °F 83.8 °F 72.0 °F 76% 30.09 in 10.0 mi East 6.9 mph - N/A   Overcast
10:09 AM 80.1 °F 83.6 °F 71.1 °F 74% 30.10 in 10.0 mi ESE 9.2 mph - N/A   Overcast
10:58 AM 82.9 °F 88.8 °F 73.0 °F 72% 30.09 in 10.0 mi East 5.8 mph - N/A   Overcast
11:58 AM 84.9 °F 90.7 °F 72.0 °F 65% 30.08 in 10.0 mi East 5.8 mph - N/A   Mostly Cloudy
12:58 PM 86.0 °F 92.2 °F 72.0 °F 63% 30.06 in 10.0 mi ENE 6.9 mph - N/A   Mostly Cloudy
1:05 PM 87.1 °F 94.5 °F 73.0 °F 63% 30.07 in 10.0 mi Variable 4.6 mph - N/A   Scattered Clouds
1:58 PM 89.1 °F 96.0 °F 72.0 °F 57% 30.05 in 10.0 mi NE 8.1 mph - N/A   Scattered Clouds
2:58 PM 90.0 °F 96.9 °F 72.0 °F 55% 30.03 in 10.0 mi ENE 8.1 mph - N/A   Partly Cloudy
3:58 PM 90.0 °F 96.9 °F 72.0 °F 55% 30.01 in 10.0 mi Variable 5.8 mph - N/A   Clear
4:58 PM 89.1 °F 95.0 °F 71.1 °F 55% 29.99 in 10.0 mi East 6.9 mph - N/A   Clear
5:58 PM 89.1 °F 95.0 °F 71.1 °F 55% 29.99 in 10.0 mi East 5.8 mph - N/A   Partly Cloudy
6:58 PM 87.1 °F 93.6 °F 72.0 °F 61% 30.00 in 10.0 mi East 5.8 mph - N/A   Clear
7:58 PM 81.0 °F 86.2 °F 73.9 °F 79% 30.01 in 10.0 mi Calm Calm - N/A   Clear
8:58 PM 79.0 °F - 73.9 °F 84% 30.01 in 10.0 mi Calm Calm - N/A   Clear
9:58 PM 77.0 °F - 73.0 °F 88% 30.02 in 10.0 mi Calm Calm - N/A   Clear
10:58 PM 75.9 °F - 72.0 °F 87% 30.03 in 10.0 mi Calm Calm - N/A   Clear
11:58 PM 75.9 °F - 72.0 °F 87% 30.02 in 10.0 mi NE 4.6 mph - N/A   Clear